CET,Max TemperatureF,Mean TemperatureF,Min TemperatureF,Max Dew PointF,MeanDew PointF,Min DewpointF,Max Humidity, Mean Humidity, Min Humidity, Max Sea Level PressureIn, Mean Sea Level PressureIn, Min Sea Level PressureIn, Max VisibilityMiles, Mean VisibilityMiles, Min VisibilityMiles, Max Wind SpeedMPH, Mean Wind SpeedMPH, Max Gust SpeedMPH,PrecipitationIn, CloudCover, Events, WindDirDegrees
2013-10-1,53,50,46,46,41,37,87,72,51,29.92,29.82,29.77,16,7,2,18,14,28,0.04,7,Rain,50
2013-10-2,51,46,42,41,31,21,87,58,32,30.24,30.11,29.97,19,8,6,17,11,28,0.00,8,,30
2013-10-3,52,46,39,30,25,21,65,45,25,30.48,30.40,30.32,19,11,6,16,11,,0.00,4,,24
2013-10-4,53,41,29,28,25,21,86,50,21,30.52,30.48,30.45,19,10,6,10,6,,0.00,1,,39
2013-10-5,59,42,26,30,27,23,86,54,21,30.45,30.35,30.27,9,9,9,8,3,,0.00,,,112
2013-10-6,64,46,28,34,29,25,87,56,18,30.31,30.29,30.27,16,11,6,5,3,,0.00,8,,59
2013-10-7,67,49,31,37,31,27,87,46,16,30.38,30.34,30.30,19,14,12,7,4,,0.00,,,44
2013-10-8,71,53,35,36,34,30,81,45,17,30.38,30.32,30.27,12,12,11,8,3,,0.00,,,56
2013-10-9,61,50,39,50,42,34,94,68,37,30.26,30.15,30.06,9,6,5,6,2,,0.02,8,Rain,338
2013-10-10,55,52,50,54,52,48,100,94,87,30.04,29.96,29.95,5,2,0,8,4,,0.04,7,Fog-Rain,124
2013-10-11,75,61,47,55,52,46,100,67,35,30.06,30.05,30.01,19,6,2,9,6,,0.00,5,,82
2013-10-12,79,66,54,55,53,50,88,60,32,30.18,30.16,30.12,19,10,4,9,6,,0.00,3,,129
2013-10-13,71,65,59,61,58,54,94,83,60,30.18,30.16,30.14,6,5,2,10,6,,0.00,5,Rain,207
2013-10-14,71,57,43,54,48,43,100,70,37,30.21,30.16,30.12,19,4,0,6,2,,0.00,6,Fog,4
2013-10-15,63,58,51,57,54,50,100,91,75,30.08,29.95,29.86,6,3,0,13,4,,0.16,5,Fog-Rain-Thunderstorm,181
2013-10-16,55,50,44,54,51,44,100,95,92,29.82,29.64,29.53,4,2,2,16,5,,0.43,7,Rain-Thunderstorm,74
2013-10-17,64,58,51,51,47,45,94,71,44,29.90,29.84,29.70,16,7,5,17,12,30,0.01,6,Rain,1
2013-10-18,61,52,42,48,45,41,100,78,41,30.04,29.95,29.92,16,6,4,12,6,,0.04,5,Rain,236
2013-10-19,59,52,44,47,37,34,88,57,29,30.30,30.27,30.14,,,,12,7,,0.00,6,,58
2013-10-20,68,54,40,46,41,35,81,60,33,30.31,30.25,30.19,12,12,12,13,6,,0.00,,,153
2013-10-21,65,58,52,55,50,44,94,74,50,30.17,30.14,30.12,16,8,6,13,9,,0.00,6,,197
2013-10-22,69,58,47,57,54,46,100,82,54,30.21,30.18,30.15,16,5,1,8,4,,0.00,5,,155
2013-10-23,76,65,54,54,53,51,88,59,33,30.16,30.10,30.06,19,11,6,21,9,30,0.00,6,,164
2013-10-24,73,62,50,54,51,46,94,65,36,30.18,30.16,30.14,19,14,6,18,7,,0.00,,,185
2013-10-25,75,62,49,54,50,48,100,67,32,30.21,30.18,30.15,16,5,2,5,2,,0.00,1,,156
2013-10-26,72,60,48,54,51,46,94,71,40,30.18,30.15,30.12,12,5,2,13,5,,0.00,1,,192
2013-10-27,72,60,48,54,50,45,94,67,44,30.14,30.07,29.96,11,7,5,12,5,,0.00,6,,169
2013-10-28,72,61,51,54,50,46,89,63,30,30.04,30.02,29.98,16,8,4,13,7,,0.00,5,,219
2013-10-29,72,64,57,55,52,50,77,62,43,30.01,29.98,29.95,19,7,6,14,9,,0.00,4,,203
2013-10-30,66,58,49,55,51,41,95,75,46,30.22,30.11,30.05,12,5,2,13,4,,0.00,3,Fog,36
2013-10-31,61,55,48,39,37,35,71,49,28,30.36,30.32,30.28,19,19,19,14,11,25,0.00,,,18